Location: ??????
(38.3184°N, 23.6932°E)
Time: 02:23:29
(UTC+00:00)

Cosmos 1726 - Pass Details

Date: 16 October 2021
Orbit: 479 x 493 km, 82.5° (Epoch: 04 December)

Event Time Altitude Azimuth Distance (km) Brightness Sun altitude
Rises 16:16:05 0° 205° (SSW) 2,522 6.2 -6.7°
Reaches altitude 10° 16:18:18 10° 215° (SW) 1,648 5.4 -7.1°
Maximum altitude 16:21:35 33° 281° (WNW) 817 4.0 -7.8°
Drops below altitude 10° 16:24:55 10° 348° (NNW) 1,661 4.9 -8.4°
Sets 16:27:10 0° 358° (N) 2,546 5.7 -8.9°
